星链-35408(STARLINK-35408)

导读

STARLINK-35408是美国太空探索技术公司SpaceX星链星座的成员,于2025年10月03日发射入轨。作为星链互联网卫星星座的批量部署卫星,它承担着为全球提供高速低延迟卫星互联网接入服务的任务,进一步扩充了星链星座的在轨规模,提升星座覆盖密度与服务容量,支撑星链在民用、商用乃至军用领域的网络服务能力。

Basic Information
目录编号:
65859
目录名称:
STARLINK-35408
国际标识:
2025-223F
轨道中心:
EARTH
卫星名称:
星链-35408
卫星全名:
星链-35408(STARLINK-35408)
卫星状态:
在轨 (已飞行336 天)
发射日期:
2025-10-03 UTC
国别 :
美国 (US)
星等 :
--
Orbit Information
数据来源 国际轨道数据 AOE轨道数据
星历时间 2026-09-04T04:00:27+0800
14小时前
查看轨道信息
2026-09-01T02:00:00+0800
3天前
查看轨道信息
半长轴 6840.723km 6840.914km
偏心率 0.0001333 0.0001337
轨道倾角 53.157° 53.156°
近地点辐角 107.852° 74.214°
升交点赤经 183.643° 198.061°
平近点角 252.263° 162.769°
近地点 461.674km 461.862km
远地点 463.498km 463.692km
周期 93.845分钟 93.849分钟
每日圈数 15.344397 15.343752
Detailed Information
固有亮度:
5
最大亮度:
2.5
卫星平台:
Starlink V1.0
覆盖范围:
全球
运营商:
太空探索技术公司
运营商所在国:
美国
制造商(研发单位):
太空探索技术公司
制造商所在国:
美国
使用方式:
暂无
Satellite Introduction
Starlink 计划是 SpaceX 推出的全球卫星互联网项目,通过发射低轨道卫星,为全球尤其是偏远地区提供高速、低延迟的互联网服务。自 2019 年起,Starlink 已部署数千颗卫星,旨在缩小全球数字鸿沟,推动互联网普及。该项目还为军事、航空等行业提供通信支持,带来广泛经济效益。
2D Orbit Map
3D Orbit Map
Orbit Altitude Analysis Chart
Orbit Inclination Analysis Chart
Orbit Comprehensive Analysis Chart
View Comprehensive Chart
Conjunction Data List
Event ID Objects TCA Miss Dist (km) Collision Risk Probability Collision Risk Index (CRI) Action
CDM_260906-100806-585906-823921
2026-09-06T
10:08:13+0000
0.159 km
中距离
4.047383E-4 高风险 0.87
CDM_260906-074106-585906-638021
2026-09-06T
07:41:07+0000
0.407 km
远距离
2.204512E-4 高风险 0.82
CDM_260906-153206-041706-585921
2026-09-06T
15:32:33+0000
0.561 km
远距离
8.277314E-5 中风险 0.73
CDM_260906-122806-585906-823921
2026-09-06T
12:28:54+0000
0.390 km
远距离
6.928102E-5 中风险 0.72
CDM_260905-091306-585906-856421
2026-09-05T
09:13:40+0000
0.651 km
远距离
6.326158E-5 中风险 0.71
CDM_260905-183605-179806-585921
2026-09-05T
18:36:51+0000
0.734 km
远距离
4.562836E-5 中风险 0.68
CDM_260905-120806-585906-638021
2026-09-05T
12:08:45+0000
0.800 km
远距离
3.617174E-5 中风险 0.66
CDM_260906-173005-213906-585921
2026-09-06T
17:30:29+0000
0.948 km
远距离
2.828672E-5 中风险 0.64
CDM_260905-103406-585906-638021
2026-09-05T
10:34:57+0000
0.879 km
远距离
2.658849E-5 中风险 0.63
CDM_260905-100105-179806-585921
2026-09-05T
10:01:00+0000
1.164 km
极远距离
9.659989E-6 低风险 0.55